TimeCEST,TemperatureF,Dew PointF,Humidity,Sea Level PressureIn,VisibilityMPH,Wind Direction,Wind SpeedMPH,Gust SpeedMPH,PrecipitationIn,Events,Conditions,WindDirDegrees,DateUTC
12:00 AM,51.8,48.2,88,30.04,-9999.0,NNE,2.3,-,N/A,,Clear,30,2013-08-26 22:00:00
1:00 AM,53.6,48.2,82,30.01,-9999.0,ENE,8.1,-,N/A,,Clear,60,2013-08-26 23:00:00
2:00 AM,51.8,46.4,82,30.01,-9999.0,ENE,5.8,-,N/A,,Clear,60,2013-08-27 00:00:00
3:00 AM,51.8,46.4,82,30.01,-9999.0,ENE,4.6,-,N/A,,Clear,70,2013-08-27 01:00:00
4:00 AM,53.6,46.4,77,30.01,6.2,ENE,8.1,-,N/A,,Partly Cloudy,70,2013-08-27 02:00:00
5:00 AM,51.8,46.4,82,30.01,6.2,East,5.8,-,N/A,,Mostly Cloudy,80,2013-08-27 03:00:00
6:00 AM,51.8,46.4,82,30.01,6.2,ENE,5.8,-,N/A,,Scattered Clouds,60,2013-08-27 04:00:00
7:00 AM,51.8,46.4,82,30.01,6.2,ENE,8.1,-,N/A,,Scattered Clouds,60,2013-08-27 05:00:00
7:30 AM,51.8,46.4,82,30.01,6.2,NE,8.1,-,N/A,,Scattered Clouds,50,2013-08-27 05:30:00
8:00 AM,53.6,46.4,77,30.01,6.2,ENE,9.2,-,N/A,,Scattered Clouds,60,2013-08-27 06:00:00
8:30 AM,53.6,48.2,82,30.01,6.2,ENE,12.7,-,N/A,,Partly Cloudy,70,2013-08-27 06:30:00
9:00 AM,57.2,48.2,72,30.01,6.2,ENE,9.2,-,N/A,,Partly Cloudy,60,2013-08-27 07:00:00
9:30 AM,57.2,50.0,77,30.01,6.2,NE,8.1,-,N/A,,Partly Cloudy,50,2013-08-27 07:30:00
10:00 AM,55.4,48.2,77,30.01,6.2,ENE,9.2,-,N/A,,Partly Cloudy,70,2013-08-27 08:00:00
10:30 AM,57.2,50.0,77,29.98,6.2,East,6.9,-,N/A,,Partly Cloudy,90,2013-08-27 08:30:00
11:00 AM,60.8,50.0,68,29.98,6.2,ENE,9.2,-,N/A,,Scattered Clouds,60,2013-08-27 09:00:00
11:30 AM,60.8,50.0,68,29.98,6.2,ENE,11.5,-,N/A,,Mostly Cloudy,70,2013-08-27 09:30:00
12:00 PM,60.8,50.0,68,29.98,6.2,ENE,9.2,-,N/A,,Mostly Cloudy,70,2013-08-27 10:00:00
12:30 PM,59.0,50.0,72,29.98,6.2,ENE,11.5,-,N/A,,Scattered Clouds,60,2013-08-27 10:30:00
1:00 PM,60.8,50.0,68,29.98,6.2,ENE,10.4,-,N/A,,Scattered Clouds,60,2013-08-27 11:00:00
1:30 PM,60.8,48.2,63,29.98,6.2,East,12.7,-,N/A,,Mostly Cloudy,80,2013-08-27 11:30:00
2:00 PM,60.8,50.0,68,29.98,6.2,East,10.4,-,N/A,,Mostly Cloudy,90,2013-08-27 12:00:00
2:30 PM,60.8,48.2,63,29.98,6.2,East,9.2,-,N/A,,Mostly Cloudy,90,2013-08-27 12:30:00
3:00 PM,59.0,50.0,72,29.98,6.2,ENE,10.4,-,N/A,,Mostly Cloudy,70,2013-08-27 13:00:00
3:30 PM,59.0,48.2,67,29.98,6.2,East,9.2,-,N/A,,Partly Cloudy,80,2013-08-27 13:30:00
4:00 PM,58,49,65,,19,East,8.9,,,,Overcast,80,2013-08-27 14:00:00
4:00 PM,57.2,50.0,77,29.98,-9999.0,East,8.1,-,N/A,,Clear,90,2013-08-27 14:00:00
4:30 PM,57.2,50.0,77,29.98,-9999.0,ENE,8.1,-,N/A,,Clear,70,2013-08-27 14:30:00
5:00 PM,58,48,60,,19,NE,6.7,,,,Overcast,50,2013-08-27 15:00:00
5:00 PM,57.2,48.2,72,29.98,6.2,ENE,6.9,-,N/A,,Partly Cloudy,60,2013-08-27 15:00:00
5:30 PM,57.2,48.2,72,29.98,6.2,ENE,10.4,-,N/A,,Partly Cloudy,70,2013-08-27 15:30:00
6:00 PM,57,48,63,,25,ENE,4.6,,,,Mostly Cloudy,70,2013-08-27 16:00:00
6:00 PM,57.2,48.2,72,29.98,-9999.0,ENE,8.1,-,N/A,,Clear,70,2013-08-27 16:00:00
6:30 PM,57.2,48.2,72,29.98,-9999.0,ENE,6.9,-,N/A,,Clear,70,2013-08-27 16:30:00
7:00 PM,56,49,69,,16,ENE,8.9,,,,Mostly Cloudy,70,2013-08-27 17:00:00
7:00 PM,57.2,48.2,72,29.98,-9999.0,ENE,9.2,-,N/A,,Clear,70,2013-08-27 17:00:00
7:30 PM,55.4,50.0,82,29.98,6.2,East,9.2,-,N/A,,Partly Cloudy,80,2013-08-27 17:30:00
8:00 PM,55,50,77,,16,ENE,8.9,,,,Mostly Cloudy,70,2013-08-27 18:00:00
8:00 PM,55.4,50.0,82,29.98,6.2,ENE,8.1,-,N/A,,Partly Cloudy,70,2013-08-27 18:00:00
8:30 PM,55.4,48.2,77,29.98,6.2,ENE,8.1,-,N/A,,Mostly Cloudy,70,2013-08-27 18:30:00
9:00 PM,54,48,74,,16,East,3.5,,,,Mostly Cloudy,80,2013-08-27 19:00:00
9:00 PM,53.6,48.2,82,29.98,6.2,East,5.8,-,N/A,,Mostly Cloudy,80,2013-08-27 19:00:00
10:00 PM,54,48,75,,16,ENE,6.7,,,,Mostly Cloudy,70,2013-08-27 20:00:00
10:00 PM,53.6,48.2,82,29.98,6.2,ENE,6.9,-,N/A,,Mostly Cloudy,70,2013-08-27 20:00:00
11:00 PM,53,49,82,,12,East,4.5,,,,Overcast,80,2013-08-27 21:00:00
11:00 PM,53.6,48.2,82,30.01,6.2,East,4.6,-,N/A,,Scattered Clouds,90,2013-08-27 21:00:00
11:44 PM,53.6,50.0,88,29.98,6.2,NE,3.5,-,N/A,Rain,Light Rain,50,2013-08-27 21:44:00